Terminal Aerodrome Forecast
Issued by NWS

Home | Current Version | Previous Version | Text Only | Print | Product List | Glossary On
Versions: 1 2 3 4 5 6 7 8 9 10 11 12 13 14 15 16 17 18 19 20 21 22 23 24 25
000
FTUS44 KEWX 040541
TAFSSF
TAF
KSSF 040541Z 0406/0506 05010KT P6SM OVC007
     FM041000 01012KT 5SM -SHRA OVC004
     FM041800 03012KT 5SM BR OVC008 PROB30 0418/0424 -SHRA
     FM050000 03012KT 5SM -SHRA OVC008=

USA.gov is the U.S. government's official web portal to all federal, state and local government web resources and services.